Location: Москва
(55.7504°N, 37.6175°E)
Time: 19:04:13
(UTC+03:00)

Nauka - Pass Details

Date: 26 September 2021
Orbit: 417 x 423 km, 51.6° (Epoch: 24 October)

Event Time Altitude Azimuth Distance (km) Brightness Sun altitude
Rises 20:24:24 0° 268° (W) 2,367 ? -18.1°
Reaches altitude 10° 20:26:36 10° 259° (W) 1,503 ? -18.4°
Maximum altitude 20:29:43 35° 192° (SSW) 699 ? -18.8°
Enters shadow 20:29:44 35° 192° (SSW) 699 ? -18.8°
